| time (UTC) | temp F | wind direction | speed MPH | gust MPH | rain 1hr in | rain 24hr in | rain mn in | humidity % | barometer mb |
| 20260508012614 | 77 | 323 | 0.0 | 2.0 | 0.00 | 0.00 | 0.00 | 77 | 1015.7 |
| 20260508012113 | 78 | 323 | 1.0 | 2.0 | 0.00 | 0.00 | 0.00 | 76 | 1015.7 |
| 20260508011614 | 78 | 324 | 1.0 | 2.0 | 0.00 | 0.00 | 0.00 | 75 | 1015.6 |
| 20260508011114 | 78 | 323 | 1.0 | 3.0 | 0.00 | 0.00 | 0.00 | 75 | 1015.5 |
| 20260508010614 | 78 | 322 | 0.0 | 3.0 | 0.00 | 0.00 | 0.00 | 73 | 1015.4 |
| 20260508010120 | 78 | 315 | 1.0 | 3.0 | 0.00 | 0.00 | 0.00 | 73 | 1015.5 |
| 20260508005614 | 79 | 315 | 1.0 | 2.0 | 0.00 | 0.00 | 0.00 | 72 | 1015.4 |
| 20260508005113 | 79 | 315 | 0.0 | 3.0 | 0.00 | 0.00 | 0.00 | 72 | 1015.4 |
| 20260508004614 | 79 | 315 | 1.0 | 2.0 | 0.00 | 0.00 | 0.00 | 71 | 1015.4 |
| 20260508004113 | 80 | 315 | 0.0 | 3.0 | 0.00 | 0.00 | 0.00 | 70 | 1015.3 |
| 20260508003613 | 80 | 314 | 1.0 | 2.0 | 0.00 | 0.00 | 0.00 | 69 | 1015.3 |
| 20260508003113 | 80 | 314 | 0.0 | 2.0 | 0.00 | 0.00 | 0.00 | 69 | 1015.3 |
| 20260508002614 | 81 | 314 | 1.0 | 5.0 | 0.00 | 0.00 | 0.00 | 67 | 1015.3 |
| 20260508002113 | 81 | 312 | 0.0 | 1.0 | 0.00 | 0.00 | 0.00 | 67 | 1015.3 |
| 20260508001613 | 81 | 312 | 0.0 | 3.0 | 0.00 | 0.00 | 0.00 | 65 | 1015.3 |
| 20260508001113 | 82 | 317 | 0.0 | 2.0 | 0.00 | 0.00 | 0.00 | 64 | 1015.2 |
| 20260508000613 | 82 | 317 | 0.0 | 2.0 | 0.00 | 0.00 | 0.00 | 63 | 1015.2 |
| 20260508000120 | 83 | 308 | 0.0 | 2.0 | 0.00 | 0.00 | 0.00 | 61 | 1015.2 |
| 20260507235614 | 83 | 307 | 0.0 | 2.0 | 0.00 | 0.00 | 0.00 | 61 | 1015.2 |
| 20260507235113 | 83 | 307 | 1.0 | 3.0 | 0.00 | 0.00 | 0.00 | 60 | 1015.2 |
| 20260507234614 | 84 | 323 | 1.0 | 5.0 | 0.00 | 0.00 | 0.00 | 59 | 1015.1 |
| 20260507234114 | 84 | 298 | 1.0 | 5.0 | 0.00 | 0.00 | 0.00 | 58 | 1015.1 |
| 20260507233614 | 84 | 326 | 1.0 | 5.0 | 0.00 | 0.00 | 0.00 | 56 | 1015.1 |
| 20260507233113 | 85 | 304 | 2.0 | 7.0 | 0.00 | 0.00 | 0.00 | 55 | 1015.0 |
| 20260507232613 | 85 | 320 | 1.0 | 6.0 | 0.00 | 0.00 | 0.00 | 53 | 1015.0 |
| 20260507232113 | 85 | 308 | 1.0 | 5.0 | 0.00 | 0.00 | 0.00 | 52 | 1015.0 |
| 20260507231614 | 86 | 302 | 2.0 | 3.0 | 0.00 | 0.00 | 0.00 | 51 | 1015.0 |
| 20260507231114 | 86 | 318 | 1.0 | 3.0 | 0.00 | 0.00 | 0.00 | 50 | 1015.0 |
| 20260507230613 | 86 | 323 | 3.0 | 3.0 | 0.00 | 0.00 | 0.00 | 48 | 1015.0 |
| 20260507230119 | 86 | 297 | 1.0 | 7.0 | 0.00 | 0.00 | 0.00 | 47 | 1015.0 |
| 20260507225614 | 87 | 319 | 4.0 | 12.0 | 0.00 | 0.00 | 0.00 | 46 | 1015.0 |
| 20260507225114 | 87 | 312 | 4.0 | 9.0 | 0.00 | 0.00 | 0.00 | 45 | 1015.0 |
| 20260507224113 | 87 | 309 | 2.0 | 8.0 | 0.00 | 0.00 | 0.00 | 43 | 1014.9 |
| 20260507223613 | 88 | 325 | 4.0 | 9.0 | 0.00 | 0.00 | 0.00 | 41 | 1014.9 |
| 20260507222613 | 89 | 311 | 4.0 | 9.0 | 0.00 | 0.00 | 0.00 | 38 | 1014.8 |
| 20260507222113 | 89 | 324 | 2.0 | 5.0 | 0.00 | 0.00 | 0.00 | 37 | 1014.8 |
| 20260507221613 | 89 | 320 | 3.0 | 8.0 | 0.00 | 0.00 | 0.00 | 36 | 1014.7 |
| 20260507221114 | 89 | 315 | 3.0 | 6.0 | 0.00 | 0.00 | 0.00 | 36 | 1014.7 |
| 20260507220614 | 89 | 306 | 2.0 | 7.0 | 0.00 | 0.00 | 0.00 | 35 | 1014.7 |
| 20260507220120 | 90 | 312 | 3.0 | 5.0 | 0.00 | 0.00 | 0.00 | 34 | 1014.7 |
| 20260507215614 | 90 | 314 | 1.0 | 5.0 | 0.00 | 0.00 | 0.00 | 33 | 1014.7 |
| 20260507215113 | 90 | 321 | 2.0 | 10.0 | 0.00 | 0.00 | 0.00 | 32 | 1014.7 |
| 20260507214613 | 90 | 308 | 2.0 | 6.0 | 0.00 | 0.00 | 0.00 | 33 | 1014.8 |
| 20260507214114 | 90 | 314 | 3.0 | 6.0 | 0.00 | 0.00 | 0.00 | 32 | 1014.8 |
| 20260507213613 | 90 | 303 | 3.0 | 7.0 | 0.00 | 0.00 | 0.00 | 33 | 1014.7 |
| 20260507212114 | 91 | 306 | 3.0 | 6.0 | 0.00 | 0.00 | 0.00 | 28 | 1014.8 |
| 20260507211614 | 91 | 303 | 2.0 | 7.0 | 0.00 | 0.00 | 0.00 | 30 | 1014.8 |
| 20260507211114 | 91 | 305 | 3.0 | 5.0 | 0.00 | 0.00 | 0.00 | 30 | 1014.8 |
| 20260507210614 | 92 | 321 | 3.0 | 7.0 | 0.00 | 0.00 | 0.00 | 31 | 1014.8 |
| 20260507210120 | 92 | 296 | 3.0 | 8.0 | 0.00 | 0.00 | 0.00 | 31 | 1014.8 |
| 20260507205113 | 92 | 320 | 4.0 | 8.0 | 0.00 | 0.00 | 0.00 | 30 | 1014.8 |
| 20260507204613 | 93 | 315 | 2.0 | 6.0 | 0.00 | 0.00 | 0.00 | 30 | 1014.9 |
| 20260507204113 | 93 | 20 | 2.0 | 6.0 | 0.00 | 0.00 | 0.00 | 28 | 1014.9 |
| 20260507203614 | 93 | 301 | 2.0 | 7.0 | 0.00 | 0.00 | 0.00 | 28 | 1014.8 |
| 20260507203113 | 93 | 222 | 2.0 | 9.0 | 0.00 | 0.00 | 0.00 | 30 | 1014.9 |
| 20260507202613 | 93 | 325 | 4.0 | 8.0 | 0.00 | 0.00 | 0.00 | 29 | 1015.0 |
| 20260507202113 | 93 | 236 | 3.0 | 9.0 | 0.00 | 0.00 | 0.00 | 31 | 1014.9 |
| 20260507201613 | 93 | 263 | 2.0 | 8.0 | 0.00 | 0.00 | 0.00 | 32 | 1014.9 |
| 20260507201113 | 94 | 309 | 5.0 | 10.0 | 0.00 | 0.00 | 0.00 | 31 | 1015.0 |
| 20260507200613 | 94 | 294 | 4.0 | 8.0 | 0.00 | 0.00 | 0.00 | 32 | 1015.1 |
| 20260507200120 | 94 | 118 | 2.0 | 6.0 | 0.00 | 0.00 | 0.00 | 39 | 1015.1 |
| 20260507195613 | 93 | 316 | 3.0 | 9.0 | 0.00 | 0.00 | 0.00 | 37 | 1015.1 |
| 20260507195113 | 94 | 314 | 2.0 | 6.0 | 0.00 | 0.00 | 0.00 | 37 | 1015.2 |
| 20260507194613 | 94 | 204 | 3.0 | 9.0 | 0.00 | 0.00 | 0.00 | 38 | 1015.3 |
| 20260507194114 | 94 | 38 | 2.0 | 3.0 | 0.00 | 0.00 | 0.00 | 38 | 1015.4 |
| 20260507193613 | 94 | 310 | 3.0 | 8.0 | 0.00 | 0.00 | 0.00 | 37 | 1015.3 |
| 20260507193113 | 94 | 342 | 3.0 | 8.0 | 0.00 | 0.00 | 0.00 | 37 | 1015.4 |
| 20260507192613 | 94 | 314 | 3.0 | 9.0 | 0.00 | 0.00 | 0.00 | 37 | 1015.5 |
| 20260507192114 | 94 | 175 | 2.0 | 8.0 | 0.00 | 0.00 | 0.00 | 36 | 1015.5 |
| 20260507191613 | 94 | 219 | 2.0 | 6.0 | 0.00 | 0.00 | 0.00 | 37 | 1015.6 |
| 20260507190615 | 94 | 314 | 3.0 | 12.0 | 0.00 | 0.00 | 0.00 | 37 | 1015.8 |
| 20260507190120 | 94 | 323 | 3.0 | 7.0 | 0.00 | 0.00 | 0.00 | 37 | 1015.8 |
| 20260507185613 | 94 | 312 | 3.0 | 6.0 | 0.00 | 0.00 | 0.00 | 35 | 1015.9 |
| 20260507185113 | 94 | 279 | 2.0 | 8.0 | 0.00 | 0.00 | 0.00 | 36 | 1015.9 |
| 20260507184613 | 93 | 312 | 2.0 | 7.0 | 0.00 | 0.00 | 0.00 | 35 | 1016.0 |
| 20260507184113 | 93 | 324 | 3.0 | 9.0 | 0.00 | 0.00 | 0.00 | 36 | 1016.1 |
| 20260507183613 | 93 | 315 | 3.0 | 10.0 | 0.00 | 0.00 | 0.00 | 39 | 1016.1 |
| 20260507183114 | 93 | 206 | 1.0 | 5.0 | 0.00 | 0.00 | 0.00 | 37 | 1016.1 |
| 20260507182113 | 93 | 184 | 2.0 | 6.0 | 0.00 | 0.00 | 0.00 | 34 | 1016.4 |
| 20260507181613 | 93 | 187 | 2.0 | 6.0 | 0.00 | 0.00 | 0.00 | 34 | 1016.5 |
| 20260507181113 | 93 | 149 | 2.0 | 5.0 | 0.00 | 0.00 | 0.00 | 33 | 1016.5 |
| 20260507180613 | 93 | 170 | 2.0 | 6.0 | 0.00 | 0.00 | 0.00 | 34 | 1016.5 |
| 20260507175613 | 92 | 148 | 2.0 | 6.0 | 0.00 | 0.00 | 0.00 | 33 | 1016.6 |
| 20260507174613 | 92 | 186 | 4.0 | 9.0 | 0.00 | 0.00 | 0.00 | 34 | 1016.7 |
| 20260507174113 | 92 | 178 | 2.0 | 8.0 | 0.00 | 0.00 | 0.00 | 37 | 1016.7 |
| 20260507173613 | 92 | 163 | 2.0 | 6.0 | 0.00 | 0.00 | 0.00 | 39 | 1016.8 |
| 20260507173113 | 92 | 320 | 3.0 | 7.0 | 0.00 | 0.00 | 0.00 | 41 | 1016.9 |
| 20260507172613 | 92 | 181 | 2.0 | 5.0 | 0.00 | 0.00 | 0.00 | 42 | 1016.9 |
| 20260507172113 | 92 | 285 | 3.0 | 13.0 | 0.00 | 0.00 | 0.00 | 42 | 1016.9 |
| 20260507171113 | 92 | 323 | 1.0 | 3.0 | 0.00 | 0.00 | 0.00 | 45 | 1016.9 |
| 20260507170613 | 91 | 340 | 2.0 | 3.0 | 0.00 | 0.00 | 0.00 | 47 | 1016.8 |
| 20260507165613 | 90 | 181 | 3.0 | 9.0 | 0.00 | 0.00 | 0.00 | 50 | 1016.8 |
| 20260507165113 | 90 | 222 | 2.0 | 8.0 | 0.00 | 0.00 | 0.00 | 48 | 1016.9 |
| 20260507164613 | 90 | 214 | 2.0 | 6.0 | 0.00 | 0.00 | 0.00 | 51 | 1016.9 |
| 20260507164113 | 90 | 139 | 2.0 | 7.0 | 0.00 | 0.00 | 0.00 | 50 | 1016.9 |
| 20260507163113 | 90 | 126 | 3.0 | 7.0 | 0.00 | 0.00 | 0.00 | 49 | 1017.0 |
| 20260507162613 | 90 | 135 | 3.0 | 7.0 | 0.00 | 0.00 | 0.00 | 48 | 1017.1 |
| 20260507162113 | 90 | 255 | 2.0 | 5.0 | 0.00 | 0.00 | 0.00 | 46 | 1017.1 |
| 20260507161613 | 89 | 163 | 2.0 | 6.0 | 0.00 | 0.00 | 0.00 | 44 | 1017.1 |
| 20260507161113 | 89 | 163 | 3.0 | 9.0 | 0.00 | 0.00 | 0.00 | 44 | 1017.1 |
| 20260507160118 | 90 | 166 | 3.0 | 7.0 | 0.00 | 0.00 | 0.00 | 39 | 1017.3 |
| 20260507155614 | 89 | 338 | 1.0 | 5.0 | 0.00 | 0.00 | 0.00 | 42 | 1017.3 |
| 20260507155112 | 88 | 178 | 2.0 | 8.0 | 0.00 | 0.00 | 0.00 | 44 | 1017.4 |
| 20260507154613 | 88 | 170 | 3.0 | 7.0 | 0.00 | 0.00 | 0.00 | 46 | 1017.5 |
| 20260507154113 | 88 | 139 | 3.0 | 7.0 | 0.00 | 0.00 | 0.00 | 44 | 1017.7 |
| 20260507153614 | 88 | 165 | 2.0 | 5.0 | 0.00 | 0.00 | 0.00 | 45 | 1017.7 |
| 20260507153113 | 88 | 223 | 2.0 | 7.0 | 0.00 | 0.00 | 0.00 | 43 | 1017.7 |
| 20260507152112 | 88 | 211 | 3.0 | 7.0 | 0.00 | 0.00 | 0.00 | 41 | 1017.7 |
| 20260507151613 | 88 | 226 | 2.0 | 7.0 | 0.00 | 0.00 | 0.00 | 41 | 1017.8 |
| 20260507151113 | 87 | 198 | 2.0 | 3.0 | 0.00 | 0.00 | 0.00 | 41 | 1017.8 |
| 20260507150613 | 86 | 219 | 2.0 | 7.0 | 0.00 | 0.00 | 0.00 | 39 | 1017.8 |
| 20260507145613 | 85 | 152 | 5.0 | 8.0 | 0.00 | 0.00 | 0.00 | 43 | 1017.8 |
| 20260507145112 | 85 | 197 | 3.0 | 6.0 | 0.00 | 0.00 | 0.00 | 46 | 1017.8 |
| 20260507144614 | 85 | 154 | 3.0 | 8.0 | 0.00 | 0.00 | 0.00 | 44 | 1017.7 |
| 20260507144113 | 85 | 144 | 3.0 | 6.0 | 0.00 | 0.00 | 0.00 | 50 | 1017.7 |
| 20260507143613 | 84 | 220 | 2.0 | 5.0 | 0.00 | 0.00 | 0.00 | 52 | 1017.7 |
| 20260507143113 | 84 | 148 | 3.0 | 8.0 | 0.00 | 0.00 | 0.00 | 53 | 1017.6 |
| 20260507142614 | 84 | 188 | 2.0 | 6.0 | 0.00 | 0.00 | 0.00 | 56 | 1017.7 |
| 20260507142112 | 83 | 165 | 3.0 | 6.0 | 0.00 | 0.00 | 0.00 | 57 | 1017.6 |
| 20260507141113 | 82 | 154 | 4.0 | 9.0 | 0.00 | 0.00 | 0.00 | 60 | 1017.6 |
| 20260507140612 | 82 | 167 | 2.0 | 3.0 | 0.00 | 0.00 | 0.00 | 64 | 1017.6 |
| 20260507140119 | 81 | 196 | 3.0 | 5.0 | 0.00 | 0.00 | 0.00 | 67 | 1017.6 |
| 20260507135112 | 80 | 199 | 2.0 | 6.0 | 0.00 | 0.00 | 0.00 | 70 | 1017.6 |
| 20260507134613 | 80 | 143 | 2.0 | 5.0 | 0.00 | 0.00 | 0.00 | 72 | 1017.7 |
| 20260507134113 | 79 | 154 | 3.0 | 6.0 | 0.00 | 0.00 | 0.00 | 73 | 1017.8 |
| 20260507133613 | 79 | 167 | 3.0 | 6.0 | 0.00 | 0.00 | 0.00 | 74 | 1017.8 |
| 20260507133113 | 78 | 131 | 3.0 | 6.0 | 0.00 | 0.00 | 0.00 | 76 | 1017.7 |
| 20260507132613 | 77 | 203 | 3.0 | 6.0 | 0.00 | 0.00 | 0.00 | 77 | 1017.7 |
| 20260507132113 | 77 | 148 | 1.0 | 3.0 | 0.00 | 0.00 | 0.00 | 79 | 1017.7 |
| 20260507131613 | 76 | 162 | 2.0 | 3.0 | 0.00 | 0.00 | 0.00 | 82 | 1017.6 |
| 20260507131114 | 75 | 227 | 1.0 | 3.0 | 0.00 | 0.00 | 0.00 | 84 | 1017.6 |
| 20260507130613 | 75 | 178 | 2.0 | 3.0 | 0.00 | 0.00 | 0.00 | 85 | 1017.5 |
| 20260507130119 | 74 | 199 | 0.0 | 2.0 | 0.00 | 0.00 | 0.00 | 86 | 1017.5 |
| 20260507125114 | 73 | 166 | 1.0 | 3.0 | 0.00 | 0.00 | 0.00 | 87 | 1017.4 |
| 20260507124612 | 72 | 169 | 1.0 | 5.0 | 0.00 | 0.00 | 0.00 | 89 | 1017.3 |
| 20260507124113 | 72 | 168 | 2.0 | 3.0 | 0.00 | 0.00 | 0.00 | 90 | 1017.1 |
| 20260507123613 | 71 | 173 | 1.0 | 5.0 | 0.00 | 0.00 | 0.00 | 91 | 1017.1 |
| 20260507122612 | 70 | 156 | 1.0 | 5.0 | 0.00 | 0.00 | 0.00 | 94 | 1017.2 |
| 20260507122113 | 70 | 181 | 1.0 | 2.0 | 0.00 | 0.00 | 0.00 | 95 | 1017.3 |
| 20260507121613 | 69 | 182 | 1.0 | 3.0 | 0.00 | 0.00 | 0.00 | 94 | 1017.2 |
| 20260507120613 | 69 | 210 | 1.0 | 2.0 | 0.00 | 0.00 | 0.00 | 95 | 1017.1 |
| 20260507120119 | 69 | 215 | 1.0 | 3.0 | 0.00 | 0.00 | 0.00 | 95 | 1017.1 |
| 20260507115613 | 68 | 217 | 1.0 | 2.0 | 0.00 | 0.00 | 0.00 | 95 | 1017.1 |
| 20260507114612 | 68 | 293 | 0.0 | 1.0 | 0.00 | 0.00 | 0.00 | 95 | 1017.2 |
| 20260507114113 | 68 | 293 | 0.0 | 1.0 | 0.00 | 0.00 | 0.00 | 95 | 1017.1 |
| 20260507113613 | 68 | 293 | 0.0 | 1.0 | 0.00 | 0.00 | 0.00 | 95 | 1017.0 |
| 20260507113112 | 67 | 293 | 0.0 | 1.0 | 0.00 | 0.00 | 0.00 | 94 | 1017.0 |
| 20260507112613 | 67 | 293 | 0.0 | 1.0 | 0.00 | 0.00 | 0.00 | 95 | 1016.9 |
| 20260507112114 | 67 | 293 | 1.0 | 2.0 | 0.00 | 0.00 | 0.00 | 94 | 1017.0 |
| 20260507111612 | 67 | 293 | 0.0 | 1.0 | 0.00 | 0.00 | 0.00 | 94 | 1016.9 |
| 20260507111112 | 67 | 293 | 0.0 | 2.0 | 0.00 | 0.00 | 0.00 | 94 | 1016.8 |
| 20260507110613 | 67 | 293 | 1.0 | 1.0 | 0.00 | 0.00 | 0.00 | 95 | 1016.7 |
| 20260507110119 | 66 | 293 | 0.0 | 0.0 | 0.00 | 0.00 | 0.00 | 94 | 1016.7 |
| 20260507105612 | 66 | 293 | 0.0 | 1.0 | 0.00 | 0.00 | 0.00 | 94 | 1016.7 |
| 20260507104612 | 66 | 293 | 0.0 | 0.0 | 0.00 | 0.00 | 0.00 | 94 | 1016.6 |
| 20260507104113 | 66 | 293 | 0.0 | 0.0 | 0.00 | 0.00 | 0.00 | 94 | 1016.6 |
| 20260507103613 | 66 | 293 | 0.0 | 1.0 | 0.00 | 0.00 | 0.00 | 94 | 1016.6 |
| 20260507103112 | 66 | 293 | 0.0 | 0.0 | 0.00 | 0.00 | 0.00 | 94 | 1016.6 |
| 20260507102612 | 66 | 293 | 0.0 | 0.0 | 0.00 | 0.00 | 0.00 | 94 | 1016.6 |
| 20260507102113 | 67 | 293 | 0.0 | 0.0 | 0.00 | 0.00 | 0.00 | 94 | 1016.7 |
| 20260507101613 | 67 | 293 | 0.0 | 0.0 | 0.00 | 0.00 | 0.00 | 94 | 1016.7 |
| 20260507101112 | 67 | 293 | 0.0 | 0.0 | 0.00 | 0.00 | 0.00 | 94 | 1016.6 |
| 20260507100613 | 67 | 293 | 0.0 | 0.0 | 0.00 | 0.00 | 0.00 | 94 | 1016.6 |
| 20260507100120 | 67 | 293 | 0.0 | 0.0 | 0.00 | 0.00 | 0.00 | 94 | 1016.5 |
| 20260507095612 | 67 | 293 | 0.0 | 0.0 | 0.00 | 0.00 | 0.00 | 94 | 1016.4 |
| 20260507095112 | 67 | 293 | 0.0 | 0.0 | 0.00 | 0.00 | 0.00 | 94 | 1016.5 |
| 20260507094614 | 67 | 293 | 0.0 | 0.0 | 0.00 | 0.00 | 0.00 | 93 | 1016.4 |
| 20260507094112 | 67 | 293 | 0.0 | 0.0 | 0.00 | 0.00 | 0.00 | 94 | 1016.3 |
| 20260507093612 | 67 | 293 | 0.0 | 0.0 | 0.00 | 0.00 | 0.00 | 94 | 1016.2 |
| 20260507092613 | 67 | 293 | 0.0 | 0.0 | 0.00 | 0.00 | 0.00 | 94 | 1016.1 |
| 20260507092112 | 67 | 293 | 0.0 | 0.0 | 0.00 | 0.00 | 0.00 | 93 | 1016.1 |
| 20260507091612 | 67 | 293 | 0.0 | 0.0 | 0.00 | 0.00 | 0.00 | 94 | 1016.1 |
| 20260507090613 | 67 | 293 | 0.0 | 0.0 | 0.00 | 0.00 | 0.00 | 93 | 1016.0 |
| 20260507090119 | 67 | 293 | 0.0 | 0.0 | 0.00 | 0.00 | 0.00 | 93 | 1016.1 |
| 20260507085612 | 67 | 293 | 0.0 | 0.0 | 0.00 | 0.00 | 0.00 | 93 | 1016.1 |
| 20260507085112 | 67 | 293 | 0.0 | 0.0 | 0.00 | 0.00 | 0.00 | 93 | 1016.2 |
| 20260507084612 | 67 | 293 | 0.0 | 0.0 | 0.00 | 0.00 | 0.00 | 93 | 1016.2 |
| 20260507084112 | 68 | 293 | 0.0 | 0.0 | 0.00 | 0.00 | 0.00 | 93 | 1016.3 |
| 20260507083612 | 68 | 293 | 0.0 | 0.0 | 0.00 | 0.00 | 0.00 | 93 | 1016.4 |
| 20260507083112 | 68 | 293 | 0.0 | 0.0 | 0.00 | 0.00 | 0.00 | 93 | 1016.4 |
| 20260507082612 | 68 | 293 | 0.0 | 0.0 | 0.00 | 0.00 | 0.00 | 93 | 1016.4 |
| 20260507082113 | 68 | 293 | 0.0 | 0.0 | 0.00 | 0.00 | 0.00 | 93 | 1016.3 |
| 20260507081612 | 68 | 293 | 0.0 | 0.0 | 0.00 | 0.00 | 0.00 | 93 | 1016.2 |
| 20260507081112 | 68 | 293 | 0.0 | 2.0 | 0.00 | 0.00 | 0.00 | 93 | 1016.2 |
| 20260507080612 | 68 | 293 | 0.0 | 1.0 | 0.00 | 0.00 | 0.00 | 93 | 1016.0 |
| 20260507075612 | 68 | 293 | 0.0 | 0.0 | 0.00 | 0.00 | 0.00 | 93 | 1015.8 |
| 20260507075113 | 68 | 293 | 0.0 | 0.0 | 0.00 | 0.00 | 0.00 | 93 | 1015.8 |
| 20260507074612 | 68 | 293 | 0.0 | 0.0 | 0.00 | 0.00 | 0.00 | 93 | 1015.7 |
| 20260507074112 | 68 | 293 | 0.0 | 0.0 | 0.00 | 0.00 | 0.00 | 93 | 1015.8 |
| 20260507073612 | 68 | 293 | 0.0 | 0.0 | 0.00 | 0.00 | 0.00 | 93 | 1015.9 |
| 20260507073112 | 68 | 293 | 0.0 | 0.0 | 0.00 | 0.00 | 0.00 | 93 | 1015.9 |
| 20260507072612 | 69 | 293 | 0.0 | 0.0 | 0.00 | 0.00 | 0.00 | 93 | 1015.9 |
| 20260507072112 | 69 | 293 | 0.0 | 0.0 | 0.00 | 0.00 | 0.00 | 93 | 1016.0 |
| 20260507071612 | 69 | 293 | 0.0 | 0.0 | 0.00 | 0.00 | 0.00 | 93 | 1016.0 |
| 20260507070118 | 69 | 293 | 0.0 | 0.0 | 0.00 | 0.00 | 0.00 | 92 | 1016.4 |
| 20260507065112 | 69 | 293 | 0.0 | 0.0 | 0.00 | 0.00 | 0.00 | 92 | 1016.5 |
| 20260507064612 | 69 | 293 | 0.0 | 0.0 | 0.00 | 0.00 | 0.00 | 92 | 1016.6 |
| 20260507064112 | 70 | 293 | 0.0 | 0.0 | 0.00 | 0.00 | 0.00 | 92 | 1016.6 |
| 20260507063612 | 70 | 293 | 0.0 | 1.0 | 0.00 | 0.00 | 0.00 | 92 | 1016.5 |
| 20260507063112 | 70 | 293 | 0.0 | 0.0 | 0.00 | 0.00 | 0.00 | 92 | 1016.6 |
| 20260507062613 | 70 | 293 | 0.0 | 0.0 | 0.00 | 0.00 | 0.00 | 92 | 1016.5 |
| 20260507062112 | 70 | 293 | 0.0 | 0.0 | 0.00 | 0.00 | 0.00 | 92 | 1016.6 |
| 20260507061612 | 70 | 293 | 0.0 | 0.0 | 0.00 | 0.00 | 0.00 | 92 | 1016.7 |
| 20260507061112 | 70 | 293 | 0.0 | 0.0 | 0.00 | 0.00 | 0.00 | 92 | 1016.6 |
| 20260507060612 | 71 | 293 | 0.0 | 1.0 | 0.00 | 0.00 | 0.00 | 92 | 1016.6 |
| 20260507060118 | 70 | 293 | 0.0 | 0.0 | 0.00 | 0.00 | 0.00 | 92 | 1016.7 |
| 20260507055612 | 71 | 293 | 0.0 | 0.0 | 0.00 | 0.00 | 0.00 | 92 | 1016.8 |
| 20260507055112 | 71 | 293 | 0.0 | 0.0 | 0.00 | 0.00 | 0.00 | 92 | 1016.9 |
| 20260507054612 | 71 | 293 | 0.0 | 0.0 | 0.00 | 0.00 | 0.00 | 92 | 1017.0 |
| 20260507054112 | 71 | 293 | 0.0 | 1.0 | 0.00 | 0.00 | 0.00 | 91 | 1017.1 |
| 20260507053612 | 71 | 293 | 0.0 | 1.0 | 0.00 | 0.00 | 0.00 | 92 | 1017.1 |
| 20260507053112 | 71 | 293 | 0.0 | 0.0 | 0.00 | 0.00 | 0.00 | 91 | 1017.0 |
| 20260507052612 | 71 | 293 | 0.0 | 0.0 | 0.00 | 0.00 | 0.00 | 91 | 1017.1 |
| 20260507052112 | 72 | 293 | 0.0 | 0.0 | 0.00 | 0.00 | 0.00 | 91 | 1017.1 |
| 20260507051612 | 72 | 293 | 0.0 | 0.0 | 0.00 | 0.00 | 0.00 | 91 | 1017.3 |
| 20260507051112 | 72 | 293 | 0.0 | 0.0 | 0.00 | 0.00 | 0.00 | 91 | 1017.2 |
| 20260507050612 | 72 | 293 | 0.0 | 10.0 | 0.00 | 0.00 | 0.00 | 91 | 1017.2 |
| 20260507050118 | 72 | 293 | 0.0 | 0.0 | 0.00 | 0.00 | 0.00 | 91 | 1017.3 |
| 20260507045611 | 72 | 293 | 0.0 | 0.0 | 0.00 | 0.00 | 0.00 | 91 | 1017.3 |
| 20260507045112 | 72 | 293 | 0.0 | 0.0 | 0.00 | 0.00 | 0.00 | 91 | 1017.5 |
| 20260507044612 | 73 | 293 | 0.0 | 0.0 | 0.00 | 0.00 | 0.00 | 91 | 1017.4 |
| 20260507044112 | 73 | 293 | 0.0 | 1.0 | 0.00 | 0.00 | 0.00 | 91 | 1017.4 |
| 20260507043611 | 73 | 293 | 0.0 | 0.0 | 0.00 | 0.00 | 0.00 | 91 | 1017.5 |
| 20260507043112 | 73 | 293 | 0.0 | 0.0 | 0.00 | 0.00 | 0.00 | 91 | 1017.6 |
| 20260507042612 | 73 | 293 | 0.0 | 0.0 | 0.00 | 0.00 | 0.00 | 91 | 1017.7 |
| 20260507042112 | 73 | 293 | 0.0 | 0.0 | 0.00 | 0.00 | 0.00 | 91 | 1017.8 |
| 20260507041612 | 73 | 293 | 0.0 | 0.0 | 0.00 | 0.00 | 0.00 | 90 | 1017.8 |
| 20260507041112 | 73 | 293 | 0.0 | 0.0 | 0.00 | 0.00 | 0.00 | 90 | 1017.9 |
| 20260507040612 | 73 | 293 | 0.0 | 1.0 | 0.00 | 0.00 | 0.00 | 90 | 1017.9 |
| 20260507040118 | 74 | 293 | 0.0 | 0.0 | 0.00 | 0.00 | 0.00 | 91 | 1017.8 |
| 20260507035113 | 74 | 293 | 0.0 | 0.0 | 0.00 | 0.00 | 0.00 | 91 | 1017.7 |
| 20260507034612 | 73 | 293 | 0.0 | 0.0 | 0.00 | 0.00 | 0.00 | 91 | 1017.7 |
| 20260507034112 | 73 | 293 | 0.0 | 0.0 | 0.00 | 0.00 | 0.00 | 90 | 1017.8 |
| 20260507033612 | 73 | 293 | 0.0 | 0.0 | 0.00 | 0.00 | 0.00 | 90 | 1017.7 |
| 20260507033112 | 73 | 293 | 0.0 | 1.0 | 0.00 | 0.00 | 0.00 | 90 | 1017.9 |
| 20260507032612 | 73 | 293 | 0.0 | 0.0 | 0.00 | 0.00 | 0.00 | 90 | 1018.0 |
| 20260507032112 | 74 | 293 | 0.0 | 0.0 | 0.00 | 0.00 | 0.00 | 90 | 1017.8 |
| 20260507031612 | 74 | 293 | 0.0 | 0.0 | 0.00 | 0.00 | 0.00 | 89 | 1017.9 |
| 20260507030612 | 74 | 293 | 0.0 | 0.0 | 0.00 | 0.00 | 0.00 | 88 | 1017.6 |
| 20260507030118 | 75 | 293 | 0.0 | 0.0 | 0.00 | 0.00 | 0.00 | 88 | 1017.6 |
| 20260507025611 | 75 | 293 | 0.0 | 0.0 | 0.00 | 0.00 | 0.00 | 88 | 1017.6 |
| 20260507025112 | 75 | 293 | 0.0 | 0.0 | 0.00 | 0.00 | 0.00 | 88 | 1017.7 |
| 20260507024612 | 75 | 293 | 0.0 | 0.0 | 0.00 | 0.00 | 0.00 | 87 | 1017.7 |
| 20260507024112 | 76 | 293 | 0.0 | 0.0 | 0.00 | 0.00 | 0.00 | 87 | 1017.5 |
| 20260507023112 | 76 | 293 | 0.0 | 0.0 | 0.00 | 0.00 | 0.00 | 86 | 1017.4 |
| 20260507022612 | 76 | 293 | 0.0 | 0.0 | 0.00 | 0.00 | 0.00 | 86 | 1017.5 |
| 20260507022111 | 76 | 293 | 1.0 | 2.0 | 0.00 | 0.00 | 0.00 | 86 | 1017.5 |
| 20260507021611 | 76 | 293 | 0.0 | 3.0 | 0.00 | 0.00 | 0.00 | 86 | 1017.4 |
| 20260507021112 | 76 | 322 | 2.0 | 3.0 | 0.00 | 0.00 | 0.00 | 86 | 1017.4 |
| 20260507020612 | 77 | 317 | 1.0 | 3.0 | 0.00 | 0.00 | 0.00 | 86 | 1017.3 |
| 20260507020118 | 77 | 320 | 1.0 | 2.0 | 0.00 | 0.00 | 0.00 | 85 | 1017.3 |
| 20260507015612 | 77 | 317 | 0.0 | 1.0 | 0.00 | 0.00 | 0.00 | 85 | 1017.3 |
| 20260507014612 | 77 | 323 | 1.0 | 3.0 | 0.00 | 0.00 | 0.00 | 84 | 1017.2 |
| 20260507014112 | 77 | 336 | 2.0 | 3.0 | 0.00 | 0.00 | 0.00 | 84 | 1017.2 |
| 20260507013612 | 78 | 305 | 0.0 | 3.0 | 0.00 | 0.00 | 0.00 | 84 | 1017.0 |
| 20260507013112 | 78 | 328 | 2.0 | 5.0 | 0.00 | 0.00 | 0.00 | 83 | 1017.0 |